Regional Weather Roundup
Issued by NWS

Home | Current Version | Previous Version | Graphics & Text | Print | Product List | Glossary On
Versions: 1 2 3 4 5 6 7 8 9 10 11 12 13 14 15 16 17 18 19 20 21 22 23 24 25 26 27 28 29 30 31 32 33 34 35 36 37 38 39 40 41 42 43 44 45 46 47 48 49 50
390
ASUS45 KBOU 230607
RWRCO

WEATHER ROUNDUP FOR COLORADO
NATIONAL WEATHER SERVICE DENVER/BOULDER CO
1200 AM MDT SAT SEP 23 2017

NOTE: "FAIR" INDICATES FEW OR NO CLOUDS BELOW 12000 FEET WITH NO
SIGNIFICANT WEATHER AND/OR OBSTRUCTIONS TO VISIBILITY.

COZ001>005-013-030-031-230700-
...NORTHWEST COLORADO...

CITY           SKY/WX    TMP DP  RH WIND       PRES   REMARKS
CRAIG          RAIN      48  41  76 VRB6      29.95R
HAYDEN         CLOUDY    50  40  68 VRB5      29.96R
MEEKER         CLOUDY    51  43  74 N10       29.90F
RABBIT EARS PA FAIR      37  32  81 SW7       30.10F
STEAMBOAT SPGS MOCLDY    47  38  71 N5        29.94F
WALDEN         FAIR      39  34  81 SE3       30.01R
$$

COZ006>008-011-230700-
...WEST CENTRAL VALLEYS...

CITY           SKY/WX    TMP DP  RH WIND       PRES   REMARKS
GRAND JUNCTION FAIR      66  32  28 VRB6      29.77S
MONTROSE       MOCLDY    55  37  50 SE5       29.88S
EAGLE          FAIR      46  37  71 SE5       29.95R
RIFLE          FAIR      60  39  45 NW3       29.84S
DELTA          NOT AVBL
NUCLA          FAIR      55  28  35 E8        29.90S
$$

COZ017>023-064>068-230700-
...SOUTHWEST COLORADO...

CITY           SKY/WX    TMP DP  RH WIND       PRES   REMARKS
DURANGO        LGT RAIN  56  37  49 SE10      29.96S
CORTEZ         CLOUDY    58  33  39 S7        29.89F
PAGOSA SPRINGS CLOUDY    49  47  90 N5        30.06F THUNDER
TELLURIDE      MOCLDY    54  26  33 S9G18     30.06S
WOLF CREEK PAS TSTM      32  32 100 S16G37    30.28S VSB 1/4 WCI  21
$$

COZ009-010-012-014-032>034-037-058>063-230700-
...CENTRAL COLORADO...

CITY           SKY/WX    TMP DP  RH WIND       PRES   REMARKS
ASPEN          MOCLDY    43  36  76 CALM      29.97S
BUENA VISTA    MOCLDY    54  39  56 SE15      30.03R
COPPER MTN     CLOUDY    45  27  49 SE17      30.20F
BERTHOUD PASS  MOCLDY    32  27  80 SE36G45   30.22F WCI  16
COTTONWOOD PAS CLOUDY    52  41  66 CALM      30.12S
GUNNISON       FAIR      45  35  68 N9        29.99S
KREMMLING      FAIR      43  37  81 CALM      29.98F
LEADVILLE      FAIR      47  31  53 S13       30.08F
MONARCH PASS   CLOUDY    37  32  81 SW26      30.34F
SALIDA         CLOUDY    58  40  51 S17G28    30.09F
SUNLIGHT       MOCLDY    36  30  80 SW8G17    30.15R
WILKERSON PASS CLOUDY    43  32  65 SW13G22   30.25R
$$

COZ069>075-230700-
...SAN LUIS VALLEY/SANGRE DE CRISTO MOUNTAINS...

CITY           SKY/WX    TMP DP  RH WIND       PRES   REMARKS
ALAMOSA        CLOUDY    50  48  93 CALM      30.06S
DEL NORTE      MOCLDY    48  40  73 W21G26    30.10R
LA VETA PASS   FAIR      45  36  70 S20G30    30.29S
SAGUACHE       MOCLDY    48  45  87 E5        30.09S
$$

COZ035-036-038>040-230700-
...NORTHERN COLORADO FRONT RANGE...

CITY           SKY/WX    TMP DP  RH WIND       PRES   REMARKS
DENVER INTL AP LGT RAIN  54  40  59 N8        29.98R
DMNS CITY PARK   N/A     57  37  47 N12G17    29.97F
AURORA         LGT RAIN  53  43  70 NW7       29.98R
FRONT RANGE AP LGT RAIN  54  45  71 NW8       29.98R
ERIE MUNI ARPT FAIR      55  37  50 CALM      30.03R
BOULDER MUN AP FAIR      55  36  47 CALM      29.97S
CENTENNIAL     LGT RAIN  55  42  61 N15       29.95S
BROOMFIELD     FAIR      55  36  47 N7        30.00R
FORT COLLINS   CLOUDY    55  38  52 N14       29.96F
LONGMONT       FAIR      55  39  54 CALM      29.97F
$$

COZ041-046-047-076>085-087-088-230700-
...PIKES PEAK/PALMER DIVIDE AND SOUTHERN FOOTHILLS...

CITY           SKY/WX    TMP DP  RH WIND       PRES   REMARKS
COLO. SPRINGS  CLOUDY    61  42  49 NE13      29.93F
A. F. ACADEMY  CLOUDY    55  41  59 N14       29.96R
SCHRIEVER AFB  MOCLDY    56  40  55 N10       29.95S
CHEYENNE MTN   FAIR      66  34  31 S10G21    29.91S
ELLICOTT         N/A    N/A N/A N/A NE6       29.95R
FALCON         MOCLDY    53  40  60 N10       29.99S
FORT CARSON    FAIR      67  37  33 SW7       29.90R
LIMON            N/A    N/A N/A N/A MISG      29.93S
MONUMENT HILL  MOCLDY    46  41  81 NW10      30.03F
CANON CITY     CLEAR     64  43  45 W7        29.88F
WALSENBURG     FAIR      63  43  48 W9        29.92S
TRINIDAD       FAIR      64  45  49 S15       29.92S
$$

COZ042>045-048>051-090-091-230700-
...NORTHEAST COLORADO...

CITY           SKY/WX    TMP DP  RH WIND       PRES   REMARKS
GREELEY ARPT   FAIR      54  38  54 N14       29.95F
AKRON          FAIR      55  44  66 N18       29.89R
BURLINGTON     FAIR      72  59  63 S18G25    29.85S
WRAY           FAIR      75  55  50 NW10      29.82R
YUMA           FAIR      57  37  47 NE9       29.84S
STERLING       FAIR      55  45  67 N14G24    29.92R
HOLYOKE        FAIR      59  50  72 NE14      29.86S
FORT MORGAN    MOCLDY    57  42  58 NE22G29   29.88F
$$

COZ086-089-092>099-230700-
...SOUTHEAST COLORADO...

CITY           SKY/WX    TMP DP  RH WIND       PRES   REMARKS
PUEBLO         FAIR      65  40  39 SE6       29.85R
LA JUNTA       FAIR      77  59  53 S14G22    29.82S
LAMAR          FAIR      76  60  57 S25G37    29.79S
SPRINGFIELD      N/A     65  62  90 S12       29.91R
$$




USA.gov is the U.S. government's official web portal to all federal, state and local government web resources and services.